AO-07 1 07530U 74089B 18326.18473653 -.00000045 00000-0 81806-6 0 9999 2 07530 101.7118 291.2635 0012422 30.6376 39.6340 12.53635452 14398 UO-11 1 14781U 84021B 18326.69234935 .00000072 00000-0 15067-4 0 9999 2 14781 97.6330 356.0049 0007046 285.5045 74.5391 14.83045797867934 LO-19 1 20442U 90005G 18326.79260279 -.00000012 00000-0 11741-4 0 9990 2 20442 98.6252 264.4042 0012606 46.0642 314.1580 14.32910485506601 HUBBLE 1 20580U 90037B 18326.84615088 .00000436 00000-0 15668-4 0 9997 2 20580 28.4683 146.2084 0002808 49.6412 79.9003 15.09133829369464 MET-2/21 1 22782U 93055A 18326.59830319 .00000026 00000-0 98162-5 0 9990 2 22782 82.5471 328.2119 0023208 44.9423 94.4506 13.83813127274083 AO-27 1 22825U 93061C 18325.92807089 -.00000003 00000-0 16815-4 0 9999 2 22825 098.8821 305.0512 0007441 244.4878 115.5534 14.30044997311848 IO-26 1 22826U 93061D 18326.88765183 -.00000016 00000-0 11636-4 0 9994 2 22826 98.8763 306.0478 0008079 229.6373 130.4104 14.30377329312443 FO-29 1 24278U 96046B 18325.95402350 -.00000036 00000-0 -30517-5 0 9997 2 24278 098.5137 142.9627 0351275 061.6249 301.9837 13.53087341099329 NOAA-15 1 25338U 98030A 18326.57003853 .00000040 00000-0 35477-4 0 9996 2 25338 98.7621 343.0540 0011348 124.6455 235.5795 14.25884465 67599 GO-32 1 25397U 98043D 18326.79798634 -.00000024 00000-0 85940-5 0 9991 2 25397 98.6658 264.7129 0000341 332.5549 27.5611 14.23655452 58293 ISS 1 25544U 98067A 18326.49769918 .00002201 00000-0 40680-4 0 9990 2 25544 51.6410 309.8041 0005312 73.4832 72.5213 15.54002573143136 NO-44 1 26931U 01043C 18325.94487229 -.00000004 00000-0 30421-4 0 9992 2 26931 067.0500 182.3392 0006315 258.4404 101.5989 14.30524155895040 SO-50 1 27607U 02058C 18325.52540158 .00000017 00000-0 23251-4 0 9991 2 27607 64.5549 329.0684 0078529 296.2501 63.0546 14.75498666856172 CO-55 1 27844U 03031E 18326.47203933 .00000058 00000-0 45873-4 0 9997 2 27844 98.6865 332.7931 0008769 274.3225 85.6951 14.22145490798697 CO-57 1 27848U 03031J 18326.89788547 .00000040 00000-0 38181-4 0 9991 2 27848 98.6948 333.6604 0008672 284.9915 75.0303 14.21745543798616 RS-22 1 27939U 03042A 18326.84546986 .00000117 00000-0 29578-4 0 9993 2 27939 98.0112 102.1072 0013137 11.6149 348.5353 14.66733716810074 NOAA-18 1 28654U 05018A 18326.57852993 -.00000009 00000-0 20125-4 0 9991 2 28654 99.1271 5.1131 0014865 45.9938 314.2455 14.12390478696148 CO-58 1 28895U 05043F 18326.40848846 .00000125 00000-0 32921-4 0 9995 2 28895 97.9304 111.6726 0015559 290.9369 69.0169 14.63604138697013 Falconsat-3 1 30776U 07006E 18326.13636756 .00002200 00000-0 64299-4 0 9991 2 30776 35.4366 340.7275 0002529 5.7528 354.3227 15.35234346648601 CO-65 1 32785U 08021C 18326.19223844 .00000234 00000-0 30915-4 0 9990 2 32785 97.5465 330.8253 0011901 230.3150 129.7018 14.88209219572672 AAUSAT2 1 32788U 08021F 18326.03866269 .00000182 00000-0 21884-4 0 9997 2 32788 97.5106 345.8871 0011998 172.5934 187.5467 14.94519310573755 DO-64 1 32789U 08021G 18326.21755326 .00001537 00000-0 10804-3 0 9993 2 32789 97.4939 16.8960 0013840 116.4440 243.8209 15.06469617575570 CO-66 1 32791U 08021J 18326.82693281 .00000304 00000-0 36322-4 0 9999 2 32791 97.5313 337.1134 0012725 204.3576 155.7043 14.90676988573141 RS-30 1 32953U 08025A 18326.67372444 .00000020 00000-0 75656-4 0 9999 2 32953 82.5017 274.1033 0017988 222.5369 137.4318 12.43086653476461 PRISM 1 33493U 09002B 18326.78790714 .00000878 00000-0 82924-4 0 9998 2 33493 98.1215 234.8741 0015246 146.3834 213.8310 14.96421193534062 NOAA-19 1 33591U 09005A 18326.55046105 .00000028 00000-0 40573-4 0 9994 2 33591 99.1606 307.8622 0013084 240.8937 119.0924 14.12319292504527 TISAT-1 1 36799U 10035E 18326.37543036 .00000242 00000-0 30630-4 0 9998 2 36799 98.1284 107.0203 0013284 53.5921 306.6519 14.90938862453725 JUGNU 1 37839U 11058B 18325.95382262 .00000303 00000-0 19557-4 0 9998 2 37839 019.9599 160.5700 0018938 185.9834 334.2537 14.12634800367596 SRMSAT 1 37841U 11058D 18325.97678821 .00000303 00000-0 21300-4 0 9991 2 37841 019.9708 212.8944 0011902 064.5719 046.6925 14.10619450367092 AO-71 1 37854U 11061E 18326.83357182 .00000951 00000-0 57091-4 0 9994 2 37854 101.7107 113.1154 0162211 322.8451 36.1621 15.05891369385709 HRBE 1 37855U 11061F 18326.33555264 .00001074 00000-0 62286-4 0 9990 2 37855 101.7230 109.8282 0175094 334.0403 25.2103 15.04885350385432 ALMASAT-1 1 38078U 12006B 18326.82188601 .00030776 41403-5 22620-3 0 9994 2 38078 69.4308 134.9547 0212139 224.6029 241.2359 15.49208207365158 HORYU-2 1 38340U 12025D 18326.68168021 .00000208 00000-0 38560-4 0 9996 2 38340 98.3540 353.7485 0012677 69.4517 290.8050 14.75630994350481 RS-40 1 38735U 12041C 18326.16911990 -.00000011 00000-0 -15365-3 0 9997 2 38735 82.4783 358.1181 0016263 333.9398 26.0867 12.42577044286655 BEESAT-3 1 39135U 13015F 18326.19199888 .00000968 00000-0 58565-4 0 9990 2 39135 64.8698 351.0737 0009844 259.1179 100.8839 15.17027489308610 BEESAT-2 1 39136U 13015G 18326.41597297 .00001058 00000-0 63995-4 0 9996 2 39136 64.8699 353.5727 0010891 246.9008 113.0970 15.16476527308585 ZACUBE-1 1 39417U 13066B 18326.28070087 .00000244 00000-0 37078-4 0 9991 2 39417 97.5754 346.3786 0058915 358.7041 1.4011 14.81014137270192 TRITON-1 1 39427U 13066M 18326.87521776 .00000202 00000-0 39906-4 0 9999 2 39427 97.6547 312.4044 0115275 110.7471 250.6132 14.67744381267857 GOMX-1 1 39430U 13066Q 18326.85054807 .00000104 00000-0 27907-4 0 9996 2 39430 97.7164 292.4654 0151120 189.3262 170.5135 14.59156513266295 LO-74 1 39440U 13066AA 18326.66941971 .00000255 00000-0 42292-4 0 9994 2 39440 97.5991 332.4737 0081344 41.6025 319.1336 14.75754156269298 AO-73 1 39444U 13066AE 18326.05723334 .00000306 00000-0 44077-4 0 9992 2 39444 97.5753 347.8877 0057920 354.1653 5.8879 14.81813579269030 SPROUT 1 39770U 14029E 18326.86601323 .00000759 00000-0 90694-4 0 9994 2 39770 97.8810 66.6618 0009966 52.4794 307.7331 14.87068437243949 DUCHIFAT-1 1 40021U 14033M 18326.43778826 .00000402 00000-0 47108-4 0 9993 2 40021 97.9170 245.4342 0013620 22.6012 337.5802 14.90449988240528 NANOSATCBR1 1 40024U 14033Q 18326.42380809 .00000308 00000-0 38081-4 0 9990 2 40024 97.9089 243.3342 0012944 25.5710 334.6144 14.89691926240438 EO-79 1 40025U 14033R 18326.42921558 .00000290 00000-0 36968-4 0 9995 2 40025 97.9033 241.4667 0013268 30.3056 329.8925 14.88817452240339 DTUSAT-2 1 40030U 14033W 18325.76399216 .00000306 00000-0 38982-4 0 9993 2 40030 97.8967 239.2854 0012682 28.1091 332.0808 14.88418105240176 EO-80 1 40032U 14033Y 18326.29904360 .00000293 00000-0 37673-4 0 9997 2 40032 97.8976 239.8206 0012606 27.0760 333.1112 14.88357845240243 ANTELSAT 1 40034U 14033AA 18326.24179087 .00000266 00000-0 46797-4 0 9991 2 40034 97.7866 196.8950 0059941 49.5622 311.0793 14.74003661237974 VELOX-1 1 40057U 14034E 18326.71429041 .00000310 00000-0 50983-4 0 9999 2 40057 98.2163 80.6331 0011328 173.1480 186.9889 14.77534115237051 DAURIA DX 1 1 40071U 14037C 18326.83358084 .00000116 00000-0 22430-4 0 9999 2 40071 98.3977 105.4967 0008648 163.4631 196.6870 14.81210686236486 UKUBE-1 1 40074U 14037F 18326.82048047 .00000300 00000-0 43231-4 0 9993 2 40074 98.4075 112.3250 0005008 152.9616 207.1861 14.83917512236824 HODOYOSHI-1 1 40299U 14070B 18326.86394248 .00000561 00000-0 26688-4 0 9996 2 40299 97.3680 45.7632 0014498 57.0225 36.0537 15.23112220224633 CHUBUSAT-1 1 40300U 14070C 18326.77658519 .00000593 00000-0 29031-4 0 9993 2 40300 97.3506 40.9897 0021623 66.6355 81.8994 15.21802972224397 QSAT-EOS 1 40301U 14070D 18326.79247270 .00001519 00000-0 62628-4 0 9992 2 40301 97.3479 42.9854 0027681 55.0635 93.8406 15.25269606224593 FIREBIRD FU3 1 40377U 15003B 18326.43432200 .00002585 00000-0 10663-3 0 9997 2 40377 99.0871 259.5684 0130632 64.2455 297.2188 15.17845735210328 FIREBIRD FU4 1 40378U 15003C 18326.75193093 .00002571 00000-0 10601-3 0 9994 2 40378 99.0874 260.0149 0130809 63.0764 298.3760 15.17854624210371 GRIFEX 1 40379U 15003D 18326.76772902 .00001597 00000-0 72393-4 0 9992 2 40379 99.0870 255.3450 0138210 77.9605 283.7073 15.14795319210100 NO-84 1 40654U 15025D 18326.35297224 .00009779 00000-0 14811-3 0 04654 2 40654 054.9914 040.4179 0151208 151.5319 209.4168 15.43411316080243 NO-83 1 40655U 15025E 18326.33977383 .00026234 00000-0 22217-3 0 05480 2 40655 054.9724 323.1182 0086892 196.2027 163.6172 15.64683549080974 DEORBITSAIL 1 40719U 15032E 18326.76298396 .00000411 00000-0 66155-4 0 9995 2 40719 97.9271 217.5425 0015101 256.8365 103.1160 14.76571021181575 NUDT-PHONESAT 1 40900U 15049B 18326.73911228 .00001947 00000-0 88332-4 0 9994 2 40900 97.4401 333.2272 0012831 186.7989 260.0992 15.21954603176025 XW-2A 1 40903U 15049E 18326.78641479 .00001774 00000-0 44863-4 0 9999 2 40903 97.3677 3.1198 0014113 170.1403 279.7553 15.41086324178227 XW-2C 1 40906U 15049H 18326.74761980 .00000555 00000-0 32822-4 0 9996 2 40906 97.4631 327.3897 0014232 194.3450 220.0605 15.15403109175500 XW-2D 1 40907U 15049J 18326.75891757 .00000543 00000-0 32079-4 0 9995 2 40907 97.4608 327.0828 0013666 191.4209 274.3732 15.15569657175511 LILACSAT-2 1 40908U 15049K 18326.69487191 .00000149 00000-0 11873-4 0 9993 2 40908 97.4729 326.1682 0015139 196.3404 252.6959 15.13637678175340 XW-2E 1 40909U 15049L 18326.79002315 .00001112 00000-0 58980-4 0 9997 2 40909 97.4576 329.4470 0013410 188.9229 164.4274 15.17352105175651 XW-2F 1 40910U 15049M 18326.76559392 .00000693 00000-0 38529-4 0 9998 2 40910 97.4607 328.6944 0014589 186.1975 226.0542 15.16865717175493 XW-2B 1 40911U 15049N 18326.90378880 .00000440 00000-0 26710-4 0 9995 2 40911 97.4643 327.8187 0013628 191.3267 215.4656 15.15507769175430 DCBB 1 40912U 15049P 18326.78585417 .00000979 00000-0 49756-4 0 9990 2 40912 97.4513 331.9160 0015032 171.9124 275.0422 15.19125519175741 TW-1C 1 40926U 15051B 18326.79630844 .00009327 00000-0 15806-3 0 9998 2 40926 97.1681 8.5068 0010649 63.6717 26.4253 15.51683090177883 TW-1A 1 40928U 15051D 18326.77761171 .00002965 00000-0 77302-4 0 9997 2 40928 97.1704 357.5709 0013413 105.5227 343.7131 15.39543671177172 IO-86 1 40931U 15052B 18326.78758246 .00000632 00000-0 -97929-6 0 9991 2 40931 6.0023 99.1541 0012956 90.0898 270.1285 14.76591066170486 LQSat 1 40958U 15057A 18326.84438600 -.00000000 00000-0 76963-5 0 9994 2 40958 97.9256 36.3653 0017951 183.8616 176.2450 14.73056806168200 AO-85 1 40967U 15058D 18326.36432665 .00000159 00000-0 34160-4 0 05157 2 40967 064.7768 071.0042 0213911 266.0467 091.6180 14.75821388076991 ATHENOXAT-1 1 41168U 15077C 18326.69702546 .00001764 00000-0 59031-4 0 9999 2 41168 14.9895 299.8675 0011830 83.1949 270.2105 15.13153245162412 ChubuSat-2 1 41338U 16012B 18325.62311915 .00000371 00000-0 22232-4 0 9992 2 41338 31.0043 33.3275 0013763 192.8222 167.2064 15.00058268151492 ChubuSat-3 1 41339U 16012C 18326.81510838 .00000273 00000-0 14488-4 0 9995 2 41339 31.0114 24.1271 0013678 212.7873 147.1921 15.00239945151666 Horyu-4 1 41340U 16012D 18325.52130007 .00000533 00000-0 33897-4 0 9994 2 41340 31.0063 25.6943 0013993 214.1185 145.8552 15.01111077151554 OUFTI-1 1 41458U 16025C 18326.75076675 .00001449 00000-0 78814-4 0 9999 2 41458 98.1204 37.9732 0167785 336.1393 23.2132 15.05157002141297 e-st@r-II 1 41459U 16025D 18326.78791548 .00001303 00000-0 71757-4 0 9994 2 41459 98.1223 37.7848 0168724 337.1870 22.1913 15.04856735141271 AAUSAT4 1 41460U 16025E 18326.73863753 .00001963 00000-0 10409-3 0 9997 2 41460 98.1151 38.5126 0159503 331.7007 27.5623 15.06476102141352 LO-87 1 41557U 16033B 18326.84653850 .00001229 00000-0 49463-4 0 9998 2 41557 97.4309 50.5243 0013043 315.4918 44.5272 15.26758769138379 NuSat2 1 41558U 16033C 18326.81101627 .00001287 00000-0 48992-4 0 9996 2 41558 97.4329 50.8757 0011963 320.6836 39.3534 15.28554647138375 Lapan A3 1 41603U 16040E 18326.77973757 .00000164 00000-0 10858-4 0 9994 2 41603 97.3928 25.2452 0014958 50.8916 88.2324 15.19635419134166 Swayam 1 41607U 16040J 18326.38816630 .00001472 00000-0 66030-4 0 9997 2 41607 97.3951 27.0509 0014793 48.5511 311.6993 15.22697653134179 Pratham 1 41783U 16059A 18325.85895574 .00000072 00000-0 23402-4 0 9998 2 41783 98.0988 24.7091 0032699 322.1961 37.6944 14.62956632115018 AlSat 1N 1 41789U 16059G 18326.70837227 .00000067 00000-0 21951-4 0 9991 2 41789 98.1010 27.0942 0027312 310.7903 49.0932 14.64196301115214 ScatSat 1 41790U 16059H 18326.72480790 .00000026 00000-0 17799-4 0 9994 2 41790 98.2402 11.4711 0017610 328.6941 31.3204 14.50881042114171 TY-1 1 41844U 16066D 18326.88333819 .00001397 00000-0 60971-4 0 9990 2 41844 97.4065 331.7965 0014821 192.8368 216.2834 15.23719345113046 Pegasus-1 1 41846U 16066F 18326.06530792 .00000242 00000-0 46507-4 0 9998 2 41846 98.7392 357.6558 0368730 138.1788 224.8209 14.37442408106589 CAS-2T 1 41847U 16066G 18325.72242440 .00000077 00000-0 21529-4 0 9994 2 41847 98.7347 357.8058 0366913 136.2757 226.8122 14.37937869106961 TO-89 1 41932U 98067KU 18326.77126103 .00155168 20716-4 37149-3 0 9999 2 41932 51.6251 234.8568 0005877 133.3494 226.8005 15.96204404105892 EO-88 1 42017U 17008BX 18326.39570453 .00001574 00000-0 66144-4 0 9998 2 42017 97.4310 30.3982 0006545 169.1021 191.0360 15.24915206 98175 HAVELSAT 1 42700U 98067LH 18326.81560772 .00079745 00000-0 34240-3 0 9997 2 42700 51.6278 257.1282 0005503 126.1624 233.9889 15.84343190 87045 SOMP2 1 42701U 98067LJ 18326.82776443 .00067647 00000-0 32799-3 0 9998 2 42701 51.6335 260.2955 0005369 117.4639 242.6910 15.81823665 86993 PHOENIX 1 42706U 98067LP 18326.83520915 .00039793 00000-0 23819-3 0 9999 2 42706 51.6294 263.3722 0003180 87.1535 272.9829 15.77415822 86874 X-CubeSat 1 42707U 98067LQ 18326.80060806 .00102743 00000-0 38458-3 0 9996 2 42707 51.6279 255.4224 0004812 113.4332 246.7179 15.87088777 86961 qbee 1 42708U 98067LR 18326.83795418 .00080881 00000-0 35325-3 0 9992 2 42708 51.6284 258.0476 0004092 114.7457 245.3973 15.83988878 86894 ZA-AeroSat 1 42713U 98067LU 18326.88354930 .00037038 00000-0 23780-3 0 9991 2 42713 51.6343 267.4576 0003861 84.9789 275.1652 15.75854671 86484 SpaceCube 1 42717U 98067LY 18326.87881150 .00072864 00000-0 32198-3 0 9992 2 42717 51.6240 258.2339 0005169 125.9443 234.2040 15.83775461 85973 Hoopoe 1 42718U 98067LZ 18326.80909472 .00244674 35069-4 56116-3 0 9997 2 42718 51.6232 249.3909 0006429 137.9207 222.2297 15.96833750 86084 NJUST-1 1 42722U 98067MB 18326.88997510 .00032838 00000-0 22900-3 0 9994 2 42722 51.6355 270.4223 0006554 107.0307 311.0228 15.73988904 85512 UNSW-EC0 1 42723U 98067MC 18326.87070695 .00557316 16574-3 65624-3 0 9999 2 42723 51.6343 246.1667 0007351 152.6146 207.5256 16.07953571 85818 LO-90 1 42725U 98067ME 18326.86978628 .00060313 00000-0 31495-3 0 9992 2 42725 51.6374 263.3995 0006113 108.0503 350.0372 15.80252479 85515 nSIGHT1 1 42726U 98067MF 18326.88222825 .00010763 00000-0 11365-3 0 9994 2 42726 51.6384 285.6790 0005981 103.2124 256.9539 15.64798531 85228 SNUSAT 1B 1 42727U 98067MG 18326.36518981 .00049669 00000-0 26378-3 0 9996 2 42727 51.6317 266.1483 0006861 93.4974 266.6812 15.79956088 85398 QBITO 1 42728U 98067MH 18326.84385468 .00089889 00000-0 37040-3 0 9998 2 42728 51.6326 258.2005 0005143 119.7321 240.4195 15.85159822 85382 Aalto-2 1 42729U 98067MJ 18326.88791559 .00098838 00000-0 38157-3 0 9999 2 42729 51.6270 256.8397 0005059 121.5914 238.5584 15.86470422 85411 SUSat 1 42730U 98067MK 18326.89409328 .00063721 00000-0 31778-3 0 9997 2 42730 51.6331 261.4783 0004643 114.2896 245.8591 15.81243464 85348 i-INSPIRE II 1 42731U 98067ML 18327.00039688 .02429078 11977-4 79159-3 0 9997 2 42731 51.6250 242.3160 0005207 191.1923 168.8643 16.25266798 85658 PolyITAN-2-SAU 1 42732U 98067MM 18326.64766311 .00096488 00000-0 36967-3 0 9991 2 42732 51.6296 257.4754 0006415 98.3045 261.8687 15.86624417 85429 Aoxiang-1 1 42735U 98067MQ 18326.87931464 .00036094 00000-0 24343-3 0 9994 2 42735 51.6350 269.4720 0006998 104.6105 354.4826 15.74712534 86658 BeEagleSat 1 42736U 98067MR 18326.88445404 .00044709 00000-0 25746-3 0 9990 2 42736 51.6317 265.1688 0006760 108.9678 251.2055 15.78208288 85407 CAS-4B 1 42759U 17034B 18326.75778155 .00000280 00000-0 30746-4 0 9991 2 42759 43.0194 292.6640 0010261 15.0428 49.9202 15.09426642 79415 CAS-4A 1 42761U 17034D 18326.79913674 .00000122 00000-0 21022-4 0 9997 2 42761 43.0183 292.1034 0010811 16.5804 56.4392 15.09501751 79411 UCLSat 1 42765U 17036A 18326.84809620 .00001342 00000-0 61330-4 0 9995 2 42765 97.3819 24.0002 0010322 235.4969 124.5294 15.22237078 78848 NIUSat 1 42766U 17036B 18326.79663001 .00001043 00000-0 50456-4 0 9996 2 42766 97.3818 22.8706 0014718 224.7403 135.2646 15.20706175 78636 LituanicaSAT 2 1 42768U 17036D 18326.15456538 .00002333 00000-0 10506-3 0 9997 2 42768 97.3845 22.8736 0014336 228.2256 131.7756 15.21986678 78588 Aalto 1 1 42775U 17036L 18326.39865295 .00000750 00000-0 36852-4 0 9999 2 42775 97.3810 22.7542 0012964 225.9298 134.0871 15.21001682 78540 URSA MAIOR 1 42776U 17036M 18325.91531292 .00000947 00000-0 45606-4 0 9999 2 42776 097.3818 022.3677 0012745 227.8054 132.2100 15.21107332078478 Max Valier Sat 1 42778U 17036P 18325.76159230 .00001097 00000-0 51580-4 0 9997 2 42778 97.3849 22.7156 0011274 232.6948 127.3261 15.21621960 78462 Pegasus 1 42784U 17036V 18326.70902532 .00001191 00000-0 55114-4 0 9992 2 42784 97.3822 23.7482 0010861 236.3732 123.6468 15.22024281 78626 NUDATSat 1 42787U 17036Y 18326.23077964 .00001679 00000-0 74846-4 0 9999 2 42787 97.3853 23.6565 0010125 247.4323 112.5842 15.22761843 78418 SUCHAI 1 1 42788U 17036Z 18325.84647377 .00001534 00000-0 69443-4 0 9994 2 42788 97.3826 23.0744 0010415 239.1447 120.8766 15.22354268 78572 SKCUBE 1 42789U 17036AA 18325.91687104 .00001360 00000-0 62030-4 0 9997 2 42789 097.3823 023.1211 0010270 238.8270 121.1960 15.22288804078504 VZLUSAT 1 1 42790U 17036AB 18325.82418679 .00001899 00000-0 84219-4 0 9998 2 42790 097.3832 023.2599 0009905 238.6910 121.3357 15.22772474078501 VENTA 1 1 42791U 17036AC 18325.69701645 .00001387 00000-0 63158-4 0 9993 2 42791 097.3823 022.9528 0009888 240.2343 119.7910 15.22318429078466 Robusta 1B 1 42792U 17036AD 18326.39564668 .00001310 00000-0 59586-4 0 9990 2 42792 97.3822 23.6878 0009861 237.7765 122.2516 15.22448134 78594 D-SAT 1 42794U 17036AF 18326.83639836 .00000355 00000-0 36041-4 0 9990 2 42794 97.5711 15.3256 0128266 113.9375 247.5339 14.90972119 77363 BIRD-J 1 42820U 98067MU 18326.86938383 .00043736 00000-0 26702-3 0 9997 2 42820 51.6339 268.8469 0004246 83.0592 277.0891 15.76920572 78813 BIRD-G 1 42821U 98067MV 18326.30407732 .00037451 00000-0 24295-3 0 9998 2 42821 51.6304 273.3314 0004085 73.6307 286.5142 15.75610520 78683 BIRD-M 1 42822U 98067MW 18326.30914212 .00040494 00000-0 25475-3 0 9997 2 42822 51.6348 272.6211 0004498 80.3460 279.8048 15.76273592 78699 BIRD-B 1 42823U 98067MX 18326.73183504 .00044325 00000-0 27455-3 0 9994 2 42823 51.6310 270.2154 0006035 81.6625 278.5059 15.76575073 78760 BIRD-N 1 42824U 98067MY 18326.85009758 .00042807 00000-0 27054-3 0 9994 2 42824 51.6353 270.2860 0006218 86.5536 273.6175 15.76131142 78760 TechnoSat 1 42829U 17042E 18326.69334658 .00000094 00000-0 14950-4 0 9999 2 42829 97.5821 222.9341 0015213 37.1588 323.0681 14.90890093 73945 TOMSK-TPU 120 1 42910U 98067MZ 18326.89131035 .00023850 00000-0 19850-3 0 9990 2 42910 51.6361 279.4408 0007019 89.6376 318.9390 15.69971207 72267 TANYUSHA 1 1 42911U 98067NA 18326.72734613 .00032259 00000-0 24229-3 0 9993 2 42911 51.6354 277.5777 0006832 85.4165 346.5014 15.72252567 72254 TANYUSHA 2 1 42912U 98067NB 18326.74412649 .00028389 00000-0 22416-3 0 9993 2 42912 51.6397 279.2252 0006070 94.9058 333.2932 15.71139177 72251 SFERA 2 1 42913U 98067NC 18326.89213023 .00851928 42673-3 80737-3 0 9993 2 42913 51.6277 252.1787 0006754 154.5806 205.5397 16.11309455 72591 TNS 0-2 1 42914U 98067ND 18326.88291571 .00025634 00000-0 21410-3 0 9992 2 42914 51.6347 280.3071 0005867 90.4025 269.7644 15.69848250 72246 QIKCOM-1 1 42983U 98067NF 18326.82901042 .00003633 00000-0 55444-4 0 9993 2 42983 51.6397 302.5914 0004865 71.5492 288.6029 15.57334885 60936 AO-91 1 43017U 17073E 18326.20780876 .00000516 00000-0 45269-4 0 9993 2 43017 97.7150 250.8132 0260377 117.0526 245.7514 14.78275341 54452 EcAMSat 1 43019U 98067NG 18326.85691111 .00006257 00000-0 85989-4 0 9992 2 43019 51.6405 300.5445 0005524 50.8018 309.3465 15.58753418143284 PICSAT 1 43132U 18004X 18326.73120877 .00001394 00000-0 62263-4 0 9991 2 43132 97.5162 29.7084 0008295 262.3396 97.6898 15.23042848 47847 AO-92 1 43137U 18004AC 18326.12450803 .00001118 00000-0 50564-4 0 9999 2 43137 97.5158 29.1226 0007826 267.0083 93.0258 15.23037168 47741 TianYi 2 1 43155U 18008A 18326.80825036 .00000891 00000-0 57336-4 0 9993 2 43155 97.5118 38.4916 0016625 323.9912 175.8218 15.10811701 46435 Zhou Enlai 1 43156U 18008B 18326.91361005 .00000316 00000-0 23153-4 0 9999 2 43156 97.5156 38.5254 0013959 321.8079 152.8580 15.10286934 46433 TianYi 6 1 43158U 18008D 18326.77540453 .00000192 00000-0 15743-4 0 9999 2 43158 97.5102 38.0963 0013158 319.4396 157.9100 15.09954388 46385 S-Net G 1 43186U 18014G 18326.82446822 .00000743 00000-0 70441-4 0 9996 2 43186 97.7168 233.1704 0010662 349.6892 10.4109 14.96537735 44045 S-Net H 1 43187U 18014H 18326.82429811 .00000720 00000-0 68376-4 0 9995 2 43187 97.7166 233.1637 0010640 349.6232 10.4769 14.96538164 44042 S-Net J 1 43188U 18014J 18326.82414375 .00000727 00000-0 68994-4 0 9998 2 43188 97.7169 233.1733 0010643 349.7796 10.3208 14.96538998 44044 S-Net K 1 43189U 18014K 18326.75750585 .00000732 00000-0 69388-4 0 9991 2 43189 97.7166 233.0963 0010642 349.7420 10.3583 14.96537761 42589 FMN 1 1 43192U 18015A 18326.50052237 .00001743 00000-0 75994-4 0 9991 2 43192 97.3753 92.3917 0015725 310.6937 49.2936 15.23421129 44613 Shaonian Xing 1 43199U 18015H 18325.93962177 .00001260 00000-0 54568-4 0 9995 2 43199 097.3537 091.3715 0016722 325.9872 034.0292 15.24143327044563 1KUNS-PF 1 43466U 98067NP 18326.35225540 .00014736 00000-0 18921-3 0 9994 2 43466 51.6394 306.1577 0001524 55.2615 304.8521 15.59360176 30344 UBAKUSAT 1 43467U 98067NQ 18326.46835835 .00009718 00000-0 13217-3 0 9998 2 43467 51.6385 306.1838 0003101 21.1238 338.9882 15.58293475 30367 Irazu 1 43468U 98067NR 18325.92100135 .00018028 00000-0 22308-3 0 9992 2 43468 051.6391 307.7775 0001539 056.0068 304.1071 15.60165032130279 EnduroSat One 1 43551U 98067NZ 18326.42624706 .00012200 00000-0 16968-3 0 9997 2 43551 51.6387 308.1391 0007345 82.0084 278.1741 15.57390470 20560 EQUISat 1 43552U 98067PA 18326.18106155 .00011239 00000-0 15882-3 0 9999 2 43552 51.6389 309.5043 0007507 81.8277 278.3566 15.57052692 20482 UiTMSat 1 1 43589U 98067PD 18326.42021392 .00011071 00000-0 15861-3 0 9996 2 43589 51.6387 308.8468 0006871 89.6987 270.4792 15.56701779 16250 Maya 1 1 43590U 98067PE 18326.16158835 .00012760 00000-0 18158-3 0 9990 2 43590 51.6388 310.1204 0006946 89.5723 270.6064 15.56723285 16145 Bhutan 1 1 43591U 98067PF 18325.96638989 .00012764 00000-0 18137-3 0 9992 2 43591 051.6388 311.0669 0007005 090.0419 270.1375 15.56761329016115 SiriusSat 1 1 43595U 98067PG 18326.44644300 .00010557 00000-0 15396-3 0 9996 2 43595 51.6387 309.0183 0004616 51.1390 309.0013 15.56285144 15360 SiriusSat 2 1 43596U 98067PH 18326.45557409 .00010088 00000-0 14825-3 0 9996 2 43596 51.6398 309.0891 0005289 53.0428 307.1047 15.56130400 15369 Tanusha-3 1 43597U 98067PJ 18326.44445912 .00012834 00000-0 18404-3 0 9999 2 43597 51.6375 308.9953 0004878 64.1008 296.0486 15.56518149 15365 SurfSat 1 43614U 18070B 18326.12941937 .00002705 00000-0 75739-4 0 9999 2 43614 93.0323 277.4392 0018861 35.9755 324.2764 15.36531362 10376 CP-7 DAVE 1 43615U 18070C 18326.12918103 .00002588 00000-0 72486-4 0 9994 2 43615 93.0319 277.4393 0018697 36.2803 323.9714 15.36528231 10370 ELFIN-B 1 43616U 18070D 18326.38552350 -.00000006 00000-0 00000 0 0 9993 2 43616 93.0254 277.5123 0020889 36.1893 324.1296 15.36677281 10418 ELFIN-A 1 43617U 18070E 18326.64461103 -.00000006 00000-0 00000 0 0 9998 2 43617 93.0308 277.6742 0019455 33.2608 326.9951 15.36714661 10452 STARS-Me Mother 1 43640U 98067PQ 18326.50671458 .00007922 00000-0 12197-3 0 9996 2 43640 51.6394 309.4250 0006530 43.0162 317.1339 15.55197963 7296 CubeBel 1 1 43666U 18083E 18326.82928419 .00000798 00000-0 43613-4 0 9993 2 43666 97.5390 347.5789 0014948 184.3189 295.0470 15.17136799 3765 Changshagaoxin 1 43669U 18083H 18326.82768648 .00000806 00000-0 44917-4 0 9990 2 43669 97.5243 347.5066 0011023 173.5759 233.4879 15.16421654 3728 Ten-Koh 1 43677U 18084G 18326.05625271 -.00000015 00000-0 42857-5 0 9994 2 43677 97.8362 76.3955 0014720 249.8311 110.1318 14.90094700 3542 Diwata-2 1 43678U 18084H 18326.83873092 -.00000016 00000-0 41243-5 0 9996 2 43678 97.8362 77.2333 0008519 272.8193 87.2020 14.91508203 3662 IRVINE 01 1 43693U 18088D 18326.83749543 .00001895 00000-0 84773-4 0 9999 2 43693 85.0349 95.2742 0016807 233.5004 126.4690 15.20459839 1773 /EX